Meteo Giornale » Osservazioni meteo Cina » Changchun
ore: 09:00 - Osservazioni Meteo Changchun
Lat. 43° 54' N Lon. 125° 13' E Alt. 238 metri s.l.m.
19 °C
Poco Nuvoloso
Temp. 24 Ore
10 °C
23 °C
Nord
7.2 Km/h
Dew point 13 °C
Umidità 68 %
Visibilità 10 Km
Il sole sorge alle ore 05:02
Il sole tramonta alle ore 18:16
| Data e Ora | Cielo e Fenomeni | T °C | DP °C | Um. % | Pres. hPa | Vis. km | Vento km/h | |
|---|---|---|---|---|---|---|---|---|
| Oggi h: 09:00 | Poco Nuvoloso | 19 | 13 | 68 | 1017 | 10 | N 7.2 | |
| Oggi h: 08:00 | Sereno | 17 | 15 | 88 | 1017 | 10 | N 7.2 | |
| Oggi h: 07:00 | Sereno | 14 | 14 | 100 | 1017 | 7 | N 3.6 | |
| Oggi h: 06:00 | Sereno | 12 | 12 | 100 | 1017 | 6 | N 3.6 | |
| Oggi h: 05:00 | Foschia | 10 | 10 | 100 | 1016 | 5 | N 3.6 | |
| Oggi h: 04:00 | Foschia | 11 | 11 | 100 | 1016 | 5 | N 0 | |
| Oggi h: 03:00 | Sereno | 11 | 11 | 100 | 1016 | 8 | N 3.6 | |
| Oggi h: 02:00 | Sereno | 12 | 11 | 93 | 1016 | 10 | N 3.6 | |
| Oggi h: 01:00 | Sereno | 12 | 12 | 100 | 1016 | 10 | N 3.6 | |
| Oggi h: 00:00 | Sereno | 12 | 12 | 100 | 1016 | 10 | N 0 | |
| Ieri h: 23:00 | Sereno | 13 | 12 | 93 | 1016 | 10 | N 3.6 | |
| Ieri h: 22:00 | Sereno | 14 | 13 | 93 | 1016 | 10 | N 3.6 | |
| Ieri h: 21:00 | Sereno | 15 | 13 | 87 | 1016 | 10 | N 3.6 | |
| Ieri h: 20:00 | Sereno | 16 | 13 | 82 | 1016 | 10 | N 3.6 | |
| Ieri h: 19:00 | Sereno | 17 | 14 | 82 | 1015 | 10 | N 7.2 | |
| Ieri h: 18:00 | Sereno | 19 | 14 | 72 | 1014 | 10 | N 10.8 | |
| Ieri h: 17:00 | Poco Nuvoloso | 21 | 14 | 64 | 1014 | 10 | N 10.8 | |
| Ieri h: 16:00 | Molto Nuvoloso | 22 | 15 | 64 | 1014 | 10 | N 10.8 | |
| Ieri h: 15:00 | Nuvoloso | 23 | 14 | 56 | 1013 | 10 | N 10.8 | |
| Ieri h: 14:00 | Molto Nuvoloso | 23 | 16 | 64 | 1013 | 10 | N 7.2 | |
| Ieri h: 13:00 | Molto Nuvoloso | 23 | 16 | 64 | 1013 | 10 | N/NE 10.8 | |
| Ieri h: 12:00 | Molto Nuvoloso | 23 | 17 | 68 | 1013 | 10 | NE 10.8 | |
| Ieri h: 11:00 | Nuvoloso | 21 | 16 | 73 | 1013 | 10 | NE 10.8 | |
| Ieri h: 10:00 | Nuvoloso | 21 | 17 | 77 | 1013 | 10 | E/NE 14.4 | |



